Weather History for Teterboro, NJ

Change the Weather History Date:

Friday, April 5, 2013

  Actual Average Record
Temperature  
Mean Temperature 52 °F -  
Max Temperature 63 °F 55 °F 70 °F (2005)
Min Temperature 41 °F 37 °F 28 °F (2004)
Degree Days  
Heating Degree Days 14    
Growing Degree Days 2 (Base 50)    
Moisture  
Dew Point 24 °F    
Average Humidity 40    
Maximum Humidity 65    
Minimum Humidity 19    
Precipitation  
Precipitation 0.00 in - - ()
Sea Level Pressure  
Sea Level Pressure 29.89 in    
Wind  
Wind Speed 8 mph (NW)    
Max Wind Speed 18 mph    
Max Gust Speed 26 mph    
Visibility 10 miles    
Events      
Averages and records for this station are not official NWS values.
T = Trace of Precipitation, MM = Missing Value Source: NWS Daily Summary

Daily Weather History Graph

Daily Weather History Graph

Search for Another Location

Airport:

Trip Planner

Search our weather history database for the weather conditions in past years. The results will help you decide how hot, cold, wet, or windy it might be!

Date:

Astronomy

Apr. 05, 2013 Rise Set
Actual Time 6:32 AM EDT 7:25 PM EDT
Civil Twilight 6:04 AM EDT 7:53 PM EDT
Nautical Twilight 5:31 AM EDT 8:26 PM EDT
Astronomical Twilight 4:57 AM EDT 9:01 PM EDT
Moon 3:40 AM EDT (4/5) 2:44 PM EDT (4/5)
Length of Visible Light 13h 48m
Length of Day
12h 52m
Waning Crescent, 24% of the Moon is Illuminated
Apr 5
Waning Crescent
Apr 10
New
Apr 18
First Quarter
Apr 25
Full
May 2
Last Quarter

Hourly Weather History & Observations

Time (EDT) Temp. Windchill Dew Point Humidity Pressure Visibility Wind Dir Wind Speed Gust Speed Precip Events Conditions
12:51 AM 42.1 °F 37.7 °F 24.1 °F 49% 30.06 in 10.0 mi South 6.9 mph - N/A   Clear
1:51 AM 41.0 °F 33.9 °F 24.1 °F 51% 30.06 in 10.0 mi South 12.7 mph - N/A   Clear
2:51 AM 41.0 °F 37.1 °F 26.1 °F 55% 30.01 in 10.0 mi SSW 5.8 mph - N/A   Partly Cloudy
3:51 AM 41.0 °F 38.0 °F 28.0 °F 60% 30.00 in 10.0 mi South 4.6 mph - N/A   Clear
4:51 AM 41.0 °F 37.1 °F 30.0 °F 65% 29.97 in 10.0 mi SSW 5.8 mph - N/A   Overcast
5:51 AM 41.0 °F 39.0 °F 30.0 °F 65% 29.96 in 10.0 mi South 3.5 mph - N/A   Overcast
6:51 AM 41.0 °F - 30.0 °F 65% 29.94 in 10.0 mi Calm Calm - N/A   Overcast
7:51 AM 42.1 °F - 30.0 °F 62% 29.93 in 10.0 mi Calm Calm - N/A   Mostly Cloudy
8:51 AM 43.0 °F - 28.9 °F 58% 29.91 in 10.0 mi Calm Calm - N/A   Clear
9:51 AM 46.0 °F - 28.9 °F 51% 29.87 in 10.0 mi Calm Calm - N/A   Clear
10:51 AM 50.0 °F - 27.0 °F 41% 29.86 in 10.0 mi Variable 5.8 mph - N/A   Clear
11:51 AM 54.0 °F - 26.1 °F 34% 29.82 in 10.0 mi NNW 8.1 mph - N/A   Clear
12:51 PM 57.9 °F - 19.0 °F 22% 29.78 in 10.0 mi NW 10.4 mph - N/A   Clear
1:51 PM 61.0 °F - 18.0 °F 19% 29.73 in 10.0 mi Variable 5.8 mph - N/A   Clear
2:51 PM 62.1 °F - 24.1 °F 23% 29.71 in 10.0 mi NNW 15.0 mph 19.6 mph N/A   Clear
3:51 PM 62.1 °F - 23.0 °F 22% 29.71 in 10.0 mi NNW 18.4 mph 26.5 mph N/A   Clear
4:51 PM 61.0 °F - 21.9 °F 22% 29.72 in 10.0 mi NW 18.4 mph 26.5 mph N/A   Clear
5:51 PM 57.9 °F - 18.0 °F 21% 29.77 in 10.0 mi NNW 15.0 mph 25.3 mph N/A   Clear
6:51 PM 55.9 °F - 17.1 °F 22% 29.81 in 10.0 mi NNW 16.1 mph 23.0 mph N/A   Clear
7:51 PM 52.0 °F - 17.1 °F 25% 29.84 in 10.0 mi North 12.7 mph 23.0 mph N/A   Clear
8:51 PM 50.0 °F - 18.0 °F 28% 29.89 in 10.0 mi NNW 12.7 mph 21.9 mph N/A   Clear
9:51 PM 46.9 °F - 21.0 °F 36% 29.94 in 10.0 mi NW 15.0 mph 26.5 mph N/A   Clear
10:51 PM 44.1 °F 36.8 °F 19.0 °F 37% 29.98 in 10.0 mi NNW 16.1 mph 26.5 mph N/A   Clear
11:51 PM 42.1 °F 34.9 °F 18.0 °F 38% 29.99 in 10.0 mi NNW 13.8 mph 21.9 mph N/A   Clear